Zurück zum Katalog

USA 24

AktivMilitärLEO
NORAD 18010·PAYLOAD·🇺🇸 United States

Gestartet May 15, 1987 von Vandenberg Space Force Base

Loading…

Nächste Überflüge (nächste 24 Stunden)

TLE

AktuellSource: Space-Track

Epoche: Sep 14, 2026, 14:29 UTC

1 18010U 87043F   26257.60395804  .00008103  00000-0  48711-3 0  9995
2 18010  63.2954 108.3610 0778208 106.2804 262.5224 13.87955168357868

Verfolge USA 24 in Echtzeit mit AllMySat

Download on the App Store